Home   Weather   Jersey City   Past weeks
Flag for USA

Past Weather in Jersey City, New Jersey, USA — Yesterday and Last 2 Weeks

Now
51 °F

Passing clouds.


Feels Like: 46 °F
Forecast: 57 / 47 °F
Wind: 14 mph from Northwest

Location: Newark International Airport

Current Time: Oct 18, 2019 at 7:13:49 am

Latest Report: Oct 18, 2019 at 6:51 am


Visibility: 10 mi

Pressure: 29.77 "Hg

Humidity: 63%

Dew Point: 39 °F

Location of Jersey CityLocation

Past Weather in Jersey City — Graph

°F

Jersey City Temperature Yesterday

Maximum temperature yesterday: 58 °F (at 12:51 pm)
Minimum temperature yesterday: 52 °F (at 1:51 am)
Average temperature yesterday: 55 °F

High & Low Weather Summary for the Past Weeks

 TemperatureHumidityPressure
High80 °F (Oct 7, 2:51 pm)100% (Oct 4, 12:33 am)30.47 "Hg (Oct 4, 12:33 am)
Low44 °F (Oct 5, 6:51 am)24% (Oct 10, 7:51 pm)29.15 "Hg (Oct 16, 10:02 pm)
Average60 °F66%30.05 "Hg
* Reported Oct 3 5:51 am — Oct 18 5:51 am, Jersey City. Weather by CustomWeather, © 2019

Note: Actual official high and low records may vary slightly from our data, if they occured in-between our weather recording intervals... More about our weather records

Advertising

Jersey City Weather History for the Previous 24 Hours

Scroll right to see more
 ConditionsComfort  
Time TempWeatherWind HumidityBarometerVisibility
5:51 am
Fri, Oct 18
52 °FPassing clouds.16 mph61%29.74 "Hg10 mi
4:51 am52 °FPassing clouds.17 mph61%29.71 "Hg10 mi
3:51 am52 °FPassing clouds.16 mph61%29.69 "Hg10 mi
2:51 am52 °FPassing clouds.20 mph64%29.68 "Hg10 mi
1:51 am53 °FPassing clouds.17 mph59%29.68 "Hg10 mi
12:51 am54 °FPassing clouds.15 mph57%29.66 "Hg10 mi
11:51 pm
Thu, Oct 17
54 °FPassing clouds.16 mph57%29.64 "Hg10 mi
10:51 pm55 °FPassing clouds.17 mph57%29.62 "Hg10 mi
9:51 pm55 °FPassing clouds.17 mph57%29.59 "Hg10 mi
8:51 pm55 °FPassing clouds.25 mph55%29.55 "Hg10 mi
7:51 pm56 °FPassing clouds.24 mph53%29.53 "Hg10 mi
6:51 pm57 °FPassing clouds.17 mph51%29.48 "Hg10 mi
5:51 pm57 °FPartly sunny.23 mph51%29.45 "Hg10 mi
4:51 pm58 °FPartly sunny.31 mph50%29.43 "Hg10 mi
3:51 pm57 °FPartly sunny.26 mph53%29.40 "Hg10 mi
2:51 pm57 °FOvercast.17 mph51%29.38 "Hg10 mi
1:51 pm58 °FCloudy.31 mph47%29.34 "Hg10 mi
12:51 pm58 °FCloudy.38 mph47%29.32 "Hg10 mi
11:51 am56 °FPartly sunny.24 mph53%29.33 "Hg10 mi
9:51 am55 °FPartly sunny.23 mph55%29.33 "Hg10 mi
8:51 am53 °FPartly sunny.22 mph59%29.33 "Hg10 mi
7:51 am53 °FPartly sunny.20 mph59%29.31 "Hg10 mi
Weather by CustomWeather, © 2019

See weather overview